User: anonymous   Login
Location: Sweet Grass
(48.9965°N, 111.9649°W)
Time: 08:53:35
(UTC+00:00)
Language:

ORBCOMM FM 41 - Orbit

View from above orbital plane
View from above orbital plane
View from above satellite
View from above satellite

Ground track
Ground track

The orbit data is extracted from the following two-line orbital elements,

1 33061U 08031B   23335.52740771  .00004357  00000-0  65136-3 0  9997
2 33061  48.4428 116.9517 0004363 142.2481 334.7082 14.76263382830834
Epoch (UTC): 01 December 2023 12:39:28
Eccentricity: 0.0004363
inclination: 48.4428°
perigee height: 638 km
apogee height: 644 km
right ascension of ascending node: 116.9517°
argument of perigee: 142.2481°
revolutions per day: 14.76263382
mean anomaly at epoch: 334.7082°
orbit number at epoch: 83083

The dashed part of the orbit path shows where the satellite is in the earth's shadow,  

DLR